Location: Newark
(48.1500°N, 2.9667°W)
Time: 20:41:02
(UTC+00:00)

A-11 Canister half - Pass Details

Date: 29 January 2020
Orbit: 1517 x 1683 km, 47.2° (Epoch: 22 February)

Event Time Altitude Azimuth Distance (km) Brightness Sun altitude
Exits shadow 03:36:43 46° 133° (SE) 1,961 9.5 -41.0°
Drops below altitude 10° 03:42:46 10° 119° (ESE) 3,691 11.4 -40.0°
Sets 03:45:50 0° 118° (ESE) 4,685 12.0 -39.6°
